CZ-3C DEB, 40200

Orbit data source: Space-Track

CZ-3C DEB, 40200 is space debris in HEO originally from a launch on Fri, 24 Feb 2012 UTC launched from the Xichang Space Center, China (XSC). Debris objects in space refer to the collection of defunct objects orbiting the Earth. Examples of debris include non-operational satellites, rocket bodies, and fragments generated from explosions, collisions, or faulty payload assembly.

Loading next visibility...
Identifier
40200, 2012-008K
Orbit
HEO
Last TLE update
6 days ago
Origin
Manufacturer
CALT
Mission
Spacecraft
Bus & Motor
Unknown
Mass
Unknown
Launch date (UTC)
2012-02-24 (13 years ago)
Launch vehicle
Unknown
Launch site
Xichang Space Center, China (XSC)
Object type
Payload
Rocket body
Debris
Shape & HBR
Unknown
Radar Cross Section
Medium (>0.1 m² and <1 m²)

Expand to show TLE details & history

TLE from 6 days ago
0 CZ-3C DEB
1 40200U 12008K   25181.17704209 -.00000182  00000-0  00000+0 0  9995
2 40200  21.4524   1.0022 6993140 302.5519   8.2684  2.19212614993241
Epoch: 2025-06-30T04:14Z
TLE epoch observation values (Epoch: 2025-06-30T04:14:56.436Z)
Latitude
-0.00052°
Longitude
18.77907°
Altitude
2,902.029 km
Speed
8.365 km/s
True Right ascension
00h 04m 01s
True Declination
0° 00' 02"
Sunlit
Object was in daylight at epoch
Visualization orbit readout
Latitude
20.64301°
Longitude
123.81827°
Altitude
30,984.693 km
Speed
2.327 km/s
Apparent Right ascension
07h 09m 24s
Apparent Declination
16° 47' 10"
Sunlit
Object is in daylight
Visualization observer readout
Local Sidereal Time
06:31:53
Azimuth
157.915° S
Elevation
65.477°
Doppler factor
1
Orbital elements
Apogee altitude
36,165.263 km
Perigee altitude
1,149.727 km
Semi-major axis
25,035.632 km
Eccentricity
0.69931
Inclination
21.4524°
RAAN
1.0022°
Arg. of periapsis
302.5519°
True anomaly
Unknown
Mean anomaly
8.2684°
Eccentric anomaly
Unknown
Mean motion
0.54791 °/min
Orbital period
657.05 mins
BSTAR
0
Loading maneuver chart data...
Loading SW <> Apogee altitude chart data...
Loading historical data...
Loading historical data...
Loading historical data...
Loading historical data...
Loading historical data...
Loading historical data...
Loading historical data...

CZ-3C DEB Visibility forecast

Observer location: undefined°, undefined°

Span
Click to sort rows by Start time (UTC) header in descending order
Start Az.
Max El. time (UTC)
Max El. Az.
Max El.
End time (UTC)
End Az.
430 mins2025-07-05 18:36:19.539Z157.933° S2025-07-05 19:13:19.539Z165.869° S42.345°2025-07-06 01:46:19.539Z174.631° S
301 mins2025-07-06 13:35:19.539Z200.295° SSW2025-07-06 18:36:19.539Z126.149° SE38.399°2025-07-06 18:36:19.539Z126.149° SE
|